| time (UTC) | temp F | wind direction | speed MPH | gust MPH | rain 1hr in | rain 24hr in | rain mn in | humidity % | barometer mb |
| 20260507202703 | 53 | 168 | 1.0 | 2.0 | 0.00 | 0.00 | 0.00 | 71 | 1045.0 |
| 20260507201803 | 53 | 171 | 0.0 | 2.0 | 0.00 | 0.00 | 0.00 | 72 | 1044.7 |
| 20260507200903 | 53 | 174 | 0.0 | 2.0 | 0.00 | 0.00 | 0.00 | 74 | 1044.7 |
| 20260507200220 | 53 | 160 | 1.0 | 2.0 | 0.00 | 0.00 | 0.00 | 74 | 1044.6 |
| 20260507195403 | 53 | 175 | 1.0 | 4.0 | 0.00 | 0.00 | 0.00 | 74 | 1044.5 |
| 20260507194504 | 53 | 210 | 0.0 | 4.0 | 0.00 | 0.00 | 0.00 | 74 | 1044.6 |
| 20260507192708 | 54 | 176 | 0.0 | 2.0 | 0.00 | 0.00 | 0.00 | 72 | 1044.3 |
| 20260507192015 | 54 | 180 | 0.0 | 2.0 | 0.00 | 0.00 | 0.00 | 72 | 1044.1 |
| 20260507191113 | 54 | 159 | 0.0 | 2.0 | 0.00 | 0.00 | 0.00 | 71 | 1044.2 |
| 20260507190004 | 54 | 85 | 0.0 | 2.0 | 0.00 | 0.00 | 0.00 | 71 | 1044.2 |
| 20260507185405 | 54 | 184 | 1.0 | 4.0 | 0.00 | 0.00 | 0.00 | 70 | 1044.2 |
| 20260507184503 | 54 | 140 | 1.0 | 4.0 | 0.00 | 0.00 | 0.00 | 69 | 1043.9 |
| 20260507183816 | 54 | 229 | 0.0 | 4.0 | 0.00 | 0.00 | 0.00 | 68 | 1044.1 |
| 20260507182705 | 54 | 172 | 2.0 | 4.0 | 0.00 | 0.00 | 0.00 | 66 | 1044.2 |
| 20260507181803 | 55 | 159 | 0.0 | 4.0 | 0.00 | 0.00 | 0.00 | 66 | 1043.9 |
| 20260507180908 | 55 | 188 | 1.0 | 6.0 | 0.00 | 0.00 | 0.00 | 65 | 1043.8 |
| 20260507180004 | 56 | 187 | 0.0 | 4.0 | 0.00 | 0.00 | 0.00 | 64 | 1043.9 |
| 20260507175612 | 56 | 185 | 2.0 | 4.0 | 0.00 | 0.00 | 0.00 | 64 | 1043.7 |
| 20260507174503 | 55 | 130 | 1.0 | 6.0 | 0.00 | 0.00 | 0.00 | 64 | 1043.7 |
| 20260507173603 | 56 | 87 | 2.0 | 4.0 | 0.00 | 0.00 | 0.00 | 64 | 1044.2 |
| 20260507172703 | 56 | 127 | 0.0 | 8.0 | 0.00 | 0.00 | 0.00 | 63 | 1044.1 |
| 20260507171803 | 56 | 189 | 1.0 | 6.0 | 0.00 | 0.00 | 0.00 | 62 | 1043.8 |
| 20260507170903 | 58 | 159 | 1.0 | 6.0 | 0.00 | 0.00 | 0.00 | 59 | 1043.6 |
| 20260507170003 | 58 | 147 | 1.0 | 6.0 | 0.00 | 0.00 | 0.00 | 58 | 1043.6 |
| 20260507165403 | 58 | 168 | 1.0 | 7.0 | 0.00 | 0.00 | 0.00 | 59 | 1043.6 |
| 20260507164503 | 58 | 237 | 1.0 | 6.0 | 0.00 | 0.00 | 0.00 | 58 | 1043.6 |
| 20260507163603 | 57 | 182 | 2.0 | 7.0 | 0.00 | 0.00 | 0.00 | 59 | 1043.7 |
| 20260507162703 | 58 | 73 | 0.0 | 4.0 | 0.00 | 0.00 | 0.00 | 57 | 1043.9 |
| 20260507161803 | 59 | 157 | 1.0 | 6.0 | 0.00 | 0.00 | 0.00 | 56 | 1043.8 |
| 20260507160903 | 59 | 183 | 2.0 | 4.0 | 0.00 | 0.00 | 0.00 | 55 | 1043.8 |
| 20260507160003 | 57 | 183 | 1.0 | 6.0 | 0.00 | 0.00 | 0.00 | 58 | 1043.7 |
| 20260507155403 | 57 | 176 | 2.0 | 4.0 | 0.00 | 0.00 | 0.00 | 58 | 1043.8 |
| 20260507154503 | 58 | 161 | 1.0 | 4.0 | 0.00 | 0.00 | 0.00 | 56 | 1043.8 |
| 20260507153603 | 58 | 172 | 2.0 | 7.0 | 0.00 | 0.00 | 0.00 | 55 | 1043.5 |
| 20260507152703 | 57 | 215 | 0.0 | 4.0 | 0.00 | 0.00 | 0.00 | 54 | 1043.9 |
| 20260507151803 | 58 | 169 | 0.0 | 2.0 | 0.00 | 0.00 | 0.00 | 54 | 1043.8 |
| 20260507150903 | 58 | 188 | 0.0 | 6.0 | 0.00 | 0.00 | 0.00 | 55 | 1043.8 |
| 20260507150003 | 58 | 211 | 0.0 | 4.0 | 0.00 | 0.00 | 0.00 | 53 | 1043.8 |
| 20260507145614 | 58 | 180 | 0.0 | 4.0 | 0.00 | 0.00 | 0.00 | 53 | 1043.7 |
| 20260507144503 | 58 | 220 | 0.0 | 4.0 | 0.00 | 0.00 | 0.00 | 55 | 1043.9 |
| 20260507143603 | 58 | 180 | 1.0 | 9.0 | 0.00 | 0.00 | 0.00 | 55 | 1044.1 |
| 20260507142703 | 58 | 179 | 4.0 | 9.0 | 0.00 | 0.00 | 0.00 | 55 | 1043.8 |
| 20260507141803 | 58 | 217 | 1.0 | 4.0 | 0.00 | 0.00 | 0.00 | 55 | 1044.3 |
| 20260507140903 | 58 | 164 | 1.0 | 4.0 | 0.00 | 0.00 | 0.00 | 52 | 1044.2 |
| 20260507140003 | 58 | 162 | 0.0 | 6.0 | 0.00 | 0.00 | 0.00 | 54 | 1044.3 |
| 20260507135615 | 58 | 121 | 2.0 | 6.0 | 0.00 | 0.00 | 0.00 | 54 | 1044.3 |
| 20260507134503 | 57 | 206 | 1.0 | 4.0 | 0.00 | 0.00 | 0.00 | 54 | 1044.2 |
| 20260507133603 | 58 | 142 | 2.0 | 4.0 | 0.00 | 0.00 | 0.00 | 54 | 1044.3 |
| 20260507132703 | 58 | 191 | 0.0 | 4.0 | 0.00 | 0.00 | 0.00 | 54 | 1044.4 |
| 20260507131803 | 58 | 139 | 0.0 | 4.0 | 0.00 | 0.00 | 0.00 | 52 | 1044.4 |
| 20260507130903 | 57 | 205 | 1.0 | 6.0 | 0.00 | 0.00 | 0.00 | 55 | 1044.6 |
| 20260507130003 | 57 | 222 | 1.0 | 4.0 | 0.00 | 0.00 | 0.00 | 56 | 1044.2 |
| 20260507125615 | 56 | 220 | 2.0 | 4.0 | 0.00 | 0.00 | 0.00 | 54 | 1044.5 |
| 20260507124503 | 57 | 24 | 1.0 | 4.0 | 0.00 | 0.00 | 0.00 | 54 | 1044.6 |
| 20260507123603 | 57 | 52 | 0.0 | 4.0 | 0.00 | 0.00 | 0.00 | 54 | 1044.6 |
| 20260507122705 | 55 | 47 | 1.0 | 4.0 | 0.00 | 0.00 | 0.00 | 58 | 1044.7 |
| 20260507121803 | 56 | 15 | 2.0 | 4.0 | 0.00 | 0.00 | 0.00 | 58 | 1044.6 |
| 20260507120903 | 55 | 12 | 1.0 | 2.0 | 0.00 | 0.00 | 0.00 | 59 | 1044.4 |
| 20260507120003 | 55 | 335 | 1.0 | 4.0 | 0.00 | 0.00 | 0.00 | 59 | 1044.7 |
| 20260507115403 | 55 | 1 | 1.0 | 4.0 | 0.00 | 0.00 | 0.00 | 60 | 1044.7 |
| 20260507114503 | 55 | 53 | 0.0 | 2.0 | 0.00 | 0.00 | 0.00 | 58 | 1044.6 |
| 20260507113603 | 55 | 186 | 0.0 | 4.0 | 0.00 | 0.00 | 0.00 | 56 | 1044.5 |
| 20260507112913 | 55 | 203 | 0.0 | 4.0 | 0.00 | 0.00 | 0.00 | 57 | 1044.9 |
| 20260507111803 | 55 | 150 | 0.0 | 2.0 | 0.00 | 0.00 | 0.00 | 59 | 1044.9 |
| 20260507110903 | 56 | 268 | 0.0 | 4.0 | 0.00 | 0.00 | 0.00 | 57 | 1044.5 |
| 20260507110003 | 56 | 262 | 2.0 | 6.0 | 0.00 | 0.00 | 0.00 | 56 | 1044.6 |
| 20260507105617 | 56 | 282 | 1.0 | 6.0 | 0.00 | 0.00 | 0.00 | 55 | 1044.7 |
| 20260507104503 | 57 | 124 | 1.0 | 6.0 | 0.00 | 0.00 | 0.00 | 57 | 1044.6 |
| 20260507103603 | 58 | 181 | 0.0 | 9.0 | 0.00 | 0.00 | 0.00 | 57 | 1044.7 |
| 20260507102703 | 57 | 182 | 2.0 | 9.0 | 0.00 | 0.00 | 0.00 | 56 | 1044.8 |
| 20260507102016 | 58 | 192 | 1.0 | 7.0 | 0.00 | 0.00 | 0.00 | 54 | 1044.9 |
| 20260507100903 | 58 | 163 | 2.0 | 6.0 | 0.00 | 0.00 | 0.00 | 53 | 1044.6 |
| 20260507100003 | 58 | 183 | 1.0 | 6.0 | 0.00 | 0.00 | 0.00 | 55 | 1044.8 |
| 20260507095403 | 58 | 184 | 3.0 | 6.0 | 0.00 | 0.00 | 0.00 | 54 | 1044.8 |
| 20260507094715 | 57 | 206 | 1.0 | 6.0 | 0.00 | 0.00 | 0.00 | 56 | 1044.8 |
| 20260507093603 | 56 | 184 | 2.0 | 4.0 | 0.00 | 0.00 | 0.00 | 60 | 1044.8 |
| 20260507092703 | 56 | 204 | 0.0 | 6.0 | 0.00 | 0.00 | 0.00 | 59 | 1044.8 |
| 20260507091803 | 55 | 207 | 2.0 | 7.0 | 0.00 | 0.00 | 0.00 | 61 | 1044.9 |
| 20260507090903 | 56 | 210 | 2.0 | 6.0 | 0.00 | 0.00 | 0.00 | 62 | 1044.9 |
| 20260507090004 | 55 | 204 | 1.0 | 6.0 | 0.00 | 0.00 | 0.00 | 64 | 1044.8 |
| 20260507085403 | 55 | 195 | 2.0 | 6.0 | 0.00 | 0.00 | 0.00 | 63 | 1044.8 |
| 20260507084503 | 54 | 188 | 0.0 | 4.0 | 0.00 | 0.00 | 0.00 | 66 | 1044.8 |
| 20260507083603 | 51 | 114 | 0.0 | 4.0 | 0.00 | 0.00 | 0.00 | 72 | 1044.9 |
| 20260507082703 | 51 | 115 | 0.0 | 2.0 | 0.00 | 0.00 | 0.00 | 73 | 1044.9 |
| 20260507081803 | 52 | 95 | 0.0 | 2.0 | 0.00 | 0.00 | 0.00 | 72 | 1044.8 |
| 20260507080903 | 54 | 169 | 0.0 | 2.0 | 0.00 | 0.00 | 0.00 | 67 | 1044.8 |
| 20260507080003 | 53 | 158 | 0.0 | 4.0 | 0.00 | 0.00 | 0.00 | 70 | 1044.8 |
| 20260507075403 | 53 | 231 | 1.0 | 7.0 | 0.00 | 0.00 | 0.00 | 71 | 1045.0 |
| 20260507074503 | 53 | 166 | 1.0 | 4.0 | 0.00 | 0.00 | 0.00 | 71 | 1044.7 |
| 20260507073603 | 52 | 47 | 1.0 | 4.0 | 0.00 | 0.00 | 0.00 | 71 | 1044.9 |
| 20260507072703 | 52 | 147 | 2.0 | 4.0 | 0.00 | 0.00 | 0.00 | 74 | 1044.8 |
| 20260507071803 | 51 | 88 | 0.0 | 7.0 | 0.00 | 0.00 | 0.00 | 74 | 1044.7 |
| 20260507070903 | 52 | 145 | 0.0 | 2.0 | 0.00 | 0.00 | 0.00 | 73 | 1044.8 |
| 20260507070005 | 50 | 54 | 0.0 | 2.0 | 0.00 | 0.00 | 0.00 | 75 | 1044.7 |
| 20260507065614 | 50 | 69 | 0.0 | 2.0 | 0.00 | 0.00 | 0.00 | 76 | 1044.6 |
| 20260507064503 | 48 | 137 | 0.0 | 4.0 | 0.00 | 0.00 | 0.00 | 80 | 1044.7 |
| 20260507063603 | 48 | 39 | 0.0 | 2.0 | 0.00 | 0.00 | 0.00 | 82 | 1044.6 |
| 20260507062703 | 47 | 33 | 0.0 | 2.0 | 0.00 | 0.00 | 0.00 | 84 | 1044.6 |
| 20260507061803 | 47 | 52 | 0.0 | 2.0 | 0.00 | 0.00 | 0.00 | 86 | 1044.5 |
| 20260507061116 | 46 | 48 | 1.0 | 2.0 | 0.00 | 0.00 | 0.00 | 87 | 1044.5 |
| 20260507060003 | 46 | 41 | 0.0 | 2.0 | 0.00 | 0.00 | 0.00 | 88 | 1044.4 |
| 20260507055615 | 46 | 33 | 0.0 | 2.0 | 0.00 | 0.00 | 0.00 | 89 | 1044.5 |
| 20260507054503 | 45 | 52 | 0.0 | 2.0 | 0.00 | 0.00 | 0.00 | 89 | 1044.5 |
| 20260507053603 | 45 | 62 | 0.0 | 2.0 | 0.00 | 0.00 | 0.00 | 89 | 1044.3 |
| 20260507052703 | 46 | 55 | 0.0 | 4.0 | 0.00 | 0.00 | 0.00 | 89 | 1044.2 |
| 20260507051803 | 46 | 48 | 0.0 | 2.0 | 0.00 | 0.00 | 0.00 | 90 | 1044.2 |
| 20260507050903 | 45 | 65 | 2.0 | 2.0 | 0.00 | 0.00 | 0.00 | 90 | 1043.9 |
| 20260507050003 | 45 | 67 | 0.0 | 2.0 | 0.00 | 0.00 | 0.00 | 91 | 1043.9 |
| 20260507045403 | 45 | 0 | 0.0 | 0.0 | 0.00 | 0.00 | 0.00 | 91 | 1043.8 |
| 20260507044503 | 45 | 67 | 0.0 | 2.0 | 0.00 | 0.00 | 0.00 | 92 | 1043.8 |
| 20260507043603 | 45 | 67 | 0.0 | 2.0 | 0.00 | 0.00 | 0.00 | 92 | 1043.6 |
| 20260507042703 | 44 | 67 | 0.0 | 2.0 | 0.00 | 0.00 | 0.00 | 92 | 1043.8 |
| 20260507041803 | 44 | 0 | 0.0 | 0.0 | 0.00 | 0.00 | 0.00 | 92 | 1043.8 |
| 20260507040903 | 44 | 63 | 0.0 | 2.0 | 0.00 | 0.00 | 0.00 | 92 | 1043.8 |
| 20260507040214 | 44 | 55 | 0.0 | 2.0 | 0.00 | 0.00 | 0.00 | 92 | 1043.9 |
| 20260507035616 | 44 | 45 | 0.0 | 2.0 | 0.00 | 0.00 | 0.00 | 92 | 1043.7 |
| 20260507034503 | 44 | 45 | 0.0 | 2.0 | 0.00 | 0.00 | 0.00 | 91 | 1044.1 |
| 20260507033816 | 44 | 0 | 0.0 | 0.0 | 0.00 | 0.00 | 0.00 | 91 | 1043.5 |
| 20260507032703 | 45 | 0 | 0.0 | 0.0 | 0.00 | 0.00 | 0.00 | 91 | 1043.7 |
| 20260507031803 | 45 | 0 | 0.0 | 0.0 | 0.00 | 0.00 | 0.00 | 91 | 1043.8 |
| 20260507030903 | 44 | 0 | 0.0 | 0.0 | 0.00 | 0.00 | 0.00 | 91 | 1043.7 |
| 20260507030215 | 45 | 0 | 0.0 | 0.0 | 0.00 | 0.00 | 0.00 | 91 | 1043.8 |
| 20260507025403 | 45 | 0 | 0.0 | 0.0 | 0.00 | 0.00 | 0.00 | 91 | 1044.1 |
| 20260507024503 | 44 | 58 | 0.0 | 2.0 | 0.00 | 0.00 | 0.00 | 91 | 1043.7 |
| 20260507023603 | 44 | 0 | 0.0 | 0.0 | 0.00 | 0.00 | 0.00 | 91 | 1043.7 |
| 20260507022703 | 44 | 67 | 0.0 | 2.0 | 0.00 | 0.00 | 0.00 | 91 | 1043.7 |
| 20260507021803 | 44 | 0 | 0.0 | 0.0 | 0.00 | 0.00 | 0.00 | 90 | 1043.7 |
| 20260507021113 | 45 | 0 | 0.0 | 0.0 | 0.00 | 0.00 | 0.00 | 90 | 1043.4 |
| 20260507020003 | 46 | 0 | 0.0 | 0.0 | 0.00 | 0.00 | 0.00 | 89 | 1043.7 |
| 20260507015403 | 46 | 0 | 0.0 | 0.0 | 0.00 | 0.00 | 0.00 | 89 | 1043.5 |
| 20260507014503 | 46 | 56 | 0.0 | 4.0 | 0.00 | 0.00 | 0.00 | 88 | 1043.6 |
| 20260507013603 | 46 | 32 | 1.0 | 4.0 | 0.00 | 0.00 | 0.00 | 87 | 1043.5 |
| 20260507012703 | 47 | 49 | 0.0 | 2.0 | 0.00 | 0.00 | 0.00 | 87 | 1043.5 |
| 20260507011803 | 47 | 38 | 1.0 | 2.0 | 0.00 | 0.00 | 0.00 | 87 | 1043.7 |
| 20260507010903 | 46 | 42 | 0.0 | 4.0 | 0.00 | 0.00 | 0.00 | 87 | 1043.6 |
| 20260507010003 | 46 | 36 | 0.0 | 4.0 | 0.00 | 0.00 | 0.00 | 87 | 1043.7 |
| 20260507005403 | 46 | 16 | 0.0 | 2.0 | 0.00 | 0.00 | 0.00 | 87 | 1043.4 |
| 20260507004503 | 46 | 4 | 0.0 | 4.0 | 0.00 | 0.00 | 0.00 | 87 | 1043.7 |
| 20260507003812 | 46 | 20 | 1.0 | 4.0 | 0.00 | 0.00 | 0.00 | 87 | 1043.5 |
| 20260507002703 | 46 | 344 | 0.0 | 2.0 | 0.00 | 0.00 | 0.00 | 87 | 1043.7 |
| 20260507001803 | 46 | 33 | 0.0 | 2.0 | 0.00 | 0.00 | 0.00 | 87 | 1043.5 |
| 20260507000903 | 46 | 67 | 0.0 | 2.0 | 0.00 | 0.00 | 0.00 | 88 | 1043.8 |
| 20260507000003 | 46 | 67 | 0.0 | 2.0 | 0.00 | 0.00 | 0.00 | 88 | 1043.7 |
| 20260506235403 | 46 | 67 | 0.0 | 2.0 | 0.00 | 0.00 | 0.00 | 87 | 1043.5 |
| 20260506234503 | 46 | 65 | 0.0 | 2.0 | 0.00 | 0.00 | 0.00 | 86 | 1043.6 |
| 20260506233603 | 46 | 56 | 1.0 | 4.0 | 0.00 | 0.00 | 0.00 | 86 | 1043.6 |
| 20260506232703 | 47 | 44 | 1.0 | 2.0 | 0.00 | 0.00 | 0.00 | 85 | 1043.2 |
| 20260506231803 | 47 | 22 | 0.0 | 2.0 | 0.00 | 0.00 | 0.00 | 85 | 1043.6 |
| 20260506231115 | 47 | 29 | 1.0 | 2.0 | 0.00 | 0.00 | 0.00 | 85 | 1043.4 |
| 20260506230213 | 47 | 348 | 0.0 | 2.0 | 0.00 | 0.00 | 0.00 | 84 | 1043.4 |
| 20260506225403 | 47 | 22 | 0.0 | 2.0 | 0.00 | 0.00 | 0.00 | 84 | 1043.4 |
| 20260506224503 | 47 | 326 | 0.0 | 2.0 | 0.00 | 0.00 | 0.00 | 83 | 1043.2 |
| 20260506223603 | 47 | 37 | 0.0 | 2.0 | 0.00 | 0.00 | 0.00 | 83 | 1043.4 |
| 20260506222703 | 48 | 40 | 1.0 | 4.0 | 0.00 | 0.00 | 0.00 | 82 | 1043.2 |
| 20260506221803 | 48 | 36 | 0.0 | 4.0 | 0.00 | 0.00 | 0.00 | 82 | 1043.2 |
| 20260506220903 | 48 | 17 | 0.0 | 4.0 | 0.00 | 0.00 | 0.00 | 81 | 1043.0 |
| 20260506220003 | 48 | 32 | 0.0 | 2.0 | 0.00 | 0.00 | 0.00 | 80 | 1043.4 |
| 20260506215403 | 48 | 318 | 0.0 | 4.0 | 0.00 | 0.00 | 0.00 | 80 | 1043.2 |
| 20260506214503 | 48 | 6 | 1.0 | 4.0 | 0.00 | 0.00 | 0.00 | 80 | 1043.4 |
| 20260506213814 | 48 | 9 | 0.0 | 6.0 | 0.00 | 0.00 | 0.00 | 79 | 1043.3 |
| 20260506212917 | 48 | 35 | 1.0 | 6.0 | 0.00 | 0.00 | 0.00 | 79 | 1043.2 |
| 20260506211803 | 48 | 34 | 0.0 | 4.0 | 0.00 | 0.00 | 0.00 | 78 | 1043.2 |
| 20260506211117 | 49 | 22 | 0.0 | 4.0 | 0.00 | 0.00 | 0.00 | 77 | 1043.2 |
| 20260506210003 | 49 | 26 | 0.0 | 4.0 | 0.00 | 0.00 | 0.00 | 77 | 1043.0 |
| 20260506205403 | 49 | 25 | 0.0 | 4.0 | 0.00 | 0.00 | 0.00 | 77 | 1043.0 |
| 20260506204503 | 49 | 53 | 1.0 | 4.0 | 0.00 | 0.00 | 0.00 | 76 | 1043.0 |
| 20260506203603 | 49 | 55 | 2.0 | 4.0 | 0.00 | 0.00 | 0.00 | 75 | 1043.0 |